This demonstration page uses our WeatherBlox Daily Observations layout. Learn more.

Left ArrowRight Arrow

38.20091, -84.87328

Hourly Observations for July 5, 2017

Temp ( °F °C ) Dew Point ( °F °C ) Humidity (%) Winds ( mph kmh ) Pressure ( in mb ) Visibility ( mi km ) Precip ( " mm )
12:19 am 00:19 Clear with Mist and Fog 71 21.7 68 20 90 90 Calm 30.03 1017 2 3 0.00 0.00
12:28 am 00:28 Clear with Mist and Fog 72 22.2 68 20 87 87 Calm 30.03 1017 5 8 0.00 0.00
12:53 am 00:53 Clear with Mist and Fog 71 21.7 68 20 90 90 Calm 30.05 1018 5 8 0.00 0.00
1:53 am 01:53 Clear 71 21.7 67 19.4 87 87 Calm 30.04 1017 7 11 0.00 0.00
2:53 am 02:53 Mostly Cloudy 71 21.7 67 19.4 87 87 N 3 6 30.04 1017 7 11 0.00 0.00
3:53 am 03:53 Mostly Cloudy 69 20.6 67 19.4 93 93 Calm 30.04 1017 7 11 0.00 0.00
4:53 am 04:53 Mostly Cloudy 69 20.6 66 18.9 90 90 Calm 30.04 1017 8 13 0.00 0.00
5:53 am 05:53 Mostly Clear 69 20.6 65 18.3 87 87 Calm 30.06 1018 8 13 0.00 0.00
6:16 am 06:16 Mostly Cloudy with Mist and Fog 68 20 65 18.3 90 90 Calm 30.09 1019 2 3 0.00 0.00
6:26 am 06:26 Partly Cloudy with Mist and Fog 69 20.6 66 18.9 90 90 Calm 30.09 1019 4 6 0.00 0.00
6:53 am 06:53 Mostly Cloudy with Mist and Fog 68 20 66 18.9 93 93 Calm 30.07 1018 5 8 0.00 0.00
7:53 am 07:53 Mostly Cloudy 72 22.2 68 20 87 87 Calm 30.08 1019 9 14 0.00 0.00
8:53 am 08:53 Sunny 74 23.3 69 20.6 85 85 Calm 30.08 1019 10 16 0.00 0.00
9:53 am 09:53 Partly Cloudy 77 25 70 21.1 79 79 ENE 3 6 30.09 1019 10 16 0.00 0.00
10:10 am 10:10 Mostly Cloudy 78 25.6 71 21.7 79 79 NE 3 6 30.09 1019 10 16 0.00 0.00
10:21 am 10:21 Partly Cloudy 79 26.1 70 21.1 74 74 E 3 6 30.09 1019 10 16 0.00 0.00
10:53 am 10:53 Mostly Cloudy 79 26.1 70 21.1 74 74 Calm 30.09 1019 10 16 0.00 0.00
11:24 am 11:24 Cloudy 81 27.2 70 21.1 69 69 ENE 5 7 30.09 1019 10 16 0.00 0.00
11:43 am 11:43 Cloudy 82 27.8 70 21.1 67 67 E 5 7 30.09 1019 10 16 0.00 0.00
11:53 am 11:53 Cloudy 82 27.8 70 21.1 67 67 Calm 30.09 1019 10 16 0.00 0.00
12:10 pm 12:10 Cloudy 82 27.8 70 21.1 67 67 NE 5 7 30.09 1019 10 16 0.00 0.00
12:18 pm 12:18 Cloudy 83 28.3 70 21.1 65 65 NNE 5 7 30.09 1019 10 16 0.00 0.00
12:53 pm 12:53 Cloudy 82 27.8 70 21.1 67 67 Calm 30.07 1018 10 16 0.00 0.00
1:10 pm 13:10 Cloudy with Light Rain 81 27.2 70 21.1 69 69 NNE 3 6 30.06 1018 10 16 0.00 0.03
1:29 pm 13:29 Cloudy with Heavy Rain 76 24.4 71 21.7 85 85 SSE 10 17 30.06 1018 2 3 0.14 3.56
1:33 pm 13:33 Cloudy with Heavy Rain 75 23.9 70 21.1 84 84 VRB 6 9 30.09 1019 1 1 0.28 7.11
1:50 pm 13:50 Cloudy with Rain 73 23 70 21 89 89 NNE 3 6 30.06 1018 2 2 0.56 14.22
1:53 pm 13:53 Cloudy with Light Rain 74 23.3 69 20.6 85 85 Calm 30.08 1019 3 4 0.56 14.22
1:55 pm 13:55 Cloudy with Light Rain 74 23.3 69 20.6 85 85 NE 3 6 30.06 1018 4 6 0.00 0.03
2:53 pm 14:53 Partly Cloudy 77 25 71 21.7 82 82 Calm 30.06 1018 10 16 0.00 0.03
3:16 pm 15:16 Partly Cloudy with Nearby Thunderstorms 79 26.1 71 21.7 77 77 Calm 30.06 1018 10 16 0.00 0.00
3:31 pm 15:31 Mostly Sunny 80 26.7 70 21.1 71 71 Calm 30.06 1018 10 16 0.00 0.00
3:53 pm 15:53 Partly Cloudy 79 26.1 73 22.8 82 82 SE 6 9 30.06 1018 10 16 0.00 0.00
4:53 pm 16:53 Sunny 79 26.1 71 21.7 77 77 SSE 5 7 30.05 1018 10 16 0.00 0.00
5:53 pm 17:53 Mostly Sunny 80 26.7 71 21.7 74 74 S 7 11 30.05 1018 10 16 0.00 0.00
6:53 pm 18:53 Cloudy with Light Rain 75 23.9 71 21.7 88 88 S 5 7 30.04 1017 6 10 0.01 0.25
7:53 pm 19:53 Sunny 77 25 71 21.7 82 82 SE 5 7 30.02 1017 10 16 0.01 0.25
8:53 pm 20:53 Sunny 76 24.4 70 21.1 82 82 Calm 30.01 1016 10 16 0.00 0.00
9:42 pm 21:42 Mostly Cloudy 75 23.9 69 20.6 82 82 SSE 3 6 30.03 1017 10 16 0.00 0.00
9:53 pm 21:53 Partly Cloudy 74 23.3 69 20.6 85 85 SE 5 7 30.02 1017 10 16 0.00 0.00
10:53 pm 22:53 Clear 74 23.3 71 21.7 91 91 SSW 6 9 30.04 1017 10 16 0.00 0.00
11:22 pm 23:22 Mostly Cloudy 74 23.3 71 21.7 91 91 SW 5 7 30.06 1018 10 16 0.00 0.00
11:33 pm 23:33 Partly Cloudy 74 23.3 70 21.1 88 88 SSW 3 6 30.06 1018 10 16 0.00 0.00
11:53 pm 23:53 Clear 74 23.3 70 21.1 88 88 S 3 6 30.05 1018 10 16 0.00 0.00

Powered by AerisWeather